When you browse on this site, cookies collect data to enhance your experience and personalize the content and advertising you see.
Visit our Privacy Policy to learn more. By continuing to use the site, you agree to this use of cookies and data.
  • In Romania
  • List of Countries
  • For 7 days
  • Water Temperature
  • Weather Map
  • Weather Widgets
  • user-avatar
    Login

    Hourly Weather Mosul

    Today, 27 February, Thursday

    Time Temperature Precipitation Wind Pressure Humidity
    00:00 +13°C° 0 mm 1 mps 735 mmHg 65%
    01:00 +13°C° 0 mm 2 mps 735 mmHg 65%
    02:00 +12°C° 0 mm 2 mps 735 mmHg 64%
    03:00 +12°C° 0 mm 2 mps 735 mmHg 65%
    04:00 +10°C° 0 mm 2 mps 735 mmHg 63%
    05:00 +10°C° 0 mm 2 mps 736 mmHg 62%
    06:00 +11°C° 0 mm 1 mps 736 mmHg 61%
    07:00 +12°C° 0 mm 2 mps 736 mmHg 56%
    08:00 +13°C° 0 mm 2 mps 736 mmHg 52%
    09:00 +14°C° 0 mm 2 mps 737 mmHg 47%
    10:00 +15°C° 0 mm 1 mps 737 mmHg 46%
    11:00 +16°C° 0 mm 1 mps 737 mmHg 45%
    12:00 +18°C° 0 mm 1 mps 737 mmHg 43%
    13:00 +19°C° 0 mm 1 mps 736 mmHg 44%
    14:00 +19°C° 0 mm 1 mps 736 mmHg 44%
    15:00 +20°C° 0 mm 1 mps 735 mmHg 45%
    16:00 +19°C° 0 mm 1 mps 735 mmHg 50%
    17:00 +18°C° 0 mm 1 mps 735 mmHg 55%
    18:00 +16°C° 0 mm 1 mps 735 mmHg 61%
    19:00 +15°C° 0 mm 1 mps 735 mmHg 62%
    20:00 +15°C° 0 mm 1 mps 734 mmHg 62%
    21:00 +15°C° 0 mm 1 mps 734 mmHg 63%
    22:00 +14°C° 0 mm 1 mps 734 mmHg 64%
    23:00 +14°C° 0 mm 1 mps 734 mmHg 65%

    Tomorrow, 28 February, Friday

    Time Temperature Precipitation Wind Pressure Humidity
    00:00 +14°C° 0 mm 1 mps 734 mmHg 65%
    01:00 +14°C° 0 mm 1 mps 734 mmHg 66%
    02:00 +13°C° 0 mm 2 mps 733 mmHg 67%
    03:00 +13°C° 0 mm 2 mps 733 mmHg 68%
    04:00 +13°C° 0 mm 1 mps 733 mmHg 70%
    05:00 +12°C° 0 mm 1 mps 733 mmHg 71%
    06:00 +12°C° 0 mm 1 mps 733 mmHg 72%
    07:00 +13°C° 0 mm 1 mps 733 mmHg 68%
    08:00 +14°C° 0 mm 1 mps 733 mmHg 64%
    09:00 +15°C° 0 mm 1 mps 733 mmHg 59%
    10:00 +15°C° 0 mm 0 mps 733 mmHg 55%
    11:00 +16°C° 0 mm 0 mps 733 mmHg 52%
    12:00 +17°C° 0 mm 0 mps 733 mmHg 48%
    13:00 +19°C° 0 mm 1 mps 733 mmHg 46%
    14:00 +19°C° 0 mm 1 mps 732 mmHg 45%
    15:00 +20°C° 0 mm 1 mps 732 mmHg 43%
    16:00 +19°C° 0 mm 1 mps 732 mmHg 49%
    17:00 +16°C° 0 mm 0 mps 732 mmHg 56%
    18:00 +15°C° 0 mm 0 mps 731 mmHg 62%
    19:00 +14°C° 0 mm 0 mps 731 mmHg 62%
    20:00 +15°C° 0 mm 1 mps 731 mmHg 62%
    21:00 +15°C° 0 mm 1 mps 731 mmHg 62%
    22:00 +15°C° 0 mm 1 mps 731 mmHg 63%
    23:00 +14°C° 0 mm 1 mps 731 mmHg 64%

    Day after tomorrow, 29 February, Saturday

    Time Temperature Precipitation Wind Pressure Humidity
    00:00 +14°C° 0 mm 1 mps 731 mmHg 64%
    01:00 +14°C° 0 mm 1 mps 731 mmHg 65%
    02:00 +14°C° 0 mm 2 mps 730 mmHg 65%
    03:00 +13°C° 0 mm 2 mps 730 mmHg 65%
    04:00 +13°C° 0 mm 2 mps 730 mmHg 67%
    05:00 +13°C° 0 mm 2 mps 730 mmHg 69%
    06:00 +13°C° 0 mm 2 mps 729 mmHg 71%
    07:00 +14°C° 0 mm 2 mps 729 mmHg 68%
    08:00 +15°C° 0 mm 2 mps 730 mmHg 65%
    09:00 +16°C° 0 mm 2 mps 730 mmHg 61%
    10:00 +17°C° 0 mm 2 mps 729 mmHg 56%
    11:00 +18°C° 0 mm 3 mps 729 mmHg 52%
    12:00 +19°C° 0 mm 3 mps 729 mmHg 47%
    13:00 +19°C° 0 mm 4 mps 728 mmHg 44%
    14:00 +20°C° 0 mm 4 mps 728 mmHg 42%
    15:00 +20°C° 0 mm 5 mps 727 mmHg 40%
    16:00 +20°C° 0 mm 5 mps 727 mmHg 43%
    17:00 +19°C° 0 mm 4 mps 727 mmHg 46%
    18:00 +18°C° 0 mm 4 mps 727 mmHg 49%
    19:00 +17°C° 0 mm 4 mps 727 mmHg 51%
    20:00 +15°C° 0 mm 4 mps 727 mmHg 53%
    21:00 +14°C° 0 mm 4 mps 727 mmHg 55%
    22:00 +14°C° 0 mm 4 mps 727 mmHg 57%
    23:00 +14°C° 0 mm 4 mps 727 mmHg 59%

    1 March, Sunday

    Time Temperature Precipitation Wind Pressure Humidity
    00:00 +13°C° 0 mm 4 mps 727 mmHg 61%
    01:00 +13°C° 0 mm 4 mps 727 mmHg 62%
    02:00 +13°C° 0 mm 4 mps 726 mmHg 63%
    03:00 +13°C° 0 mm 5 mps 726 mmHg 63%
    04:00 +12°C° 0 mm 4 mps 726 mmHg 65%
    05:00 +12°C° 0 mm 4 mps 726 mmHg 67%
    06:00 +12°C° 0 mm 4 mps 726 mmHg 69%
    07:00 +11°C° 0.1 mm 4 mps 726 mmHg 72%
    08:00 +10°C° 0.1 mm 4 mps 727 mmHg 74%
    09:00 +10°C° 0.1 mm 4 mps 727 mmHg 77%
    10:00 +10°C° 0 mm 4 mps 727 mmHg 72%
    11:00 +11°C° 0 mm 4 mps 727 mmHg 67%
    12:00 +12°C° 0 mm 4 mps 727 mmHg 62%
    13:00 +12°C° 0.1 mm 3 mps 728 mmHg 59%
    14:00 +12°C° 0.1 mm 3 mps 728 mmHg 56%
    15:00 +12°C° 0.1 mm 3 mps 728 mmHg 53%
    16:00 +12°C° 0 mm 3 mps 728 mmHg 56%
    17:00 +12°C° 0 mm 2 mps 728 mmHg 59%
    18:00 +12°C° 0 mm 2 mps 729 mmHg 63%
    19:00 +10°C° 0 mm 2 mps 729 mmHg 66%
    20:00 +10°C° 0 mm 2 mps 729 mmHg 70%
    21:00 +9°C° 0 mm 2 mps 730 mmHg 73%
    22:00 +9°C° 0 mm 2 mps 730 mmHg 75%
    23:00 +9°C° 0 mm 2 mps 730 mmHg 77%

    2 March, Monday

    Time Temperature Precipitation Wind Pressure Humidity
    00:00 +8°C° 0 mm 2 mps 730 mmHg 78%
    01:00 +8°C° 0 mm 2 mps 730 mmHg 79%
    02:00 +9°C° 0 mm 1 mps 730 mmHg 79%
    03:00 +9°C° 0 mm 1 mps 731 mmHg 80%
    04:00 +9°C° 0 mm 1 mps 731 mmHg 80%
    05:00 +8°C° 0 mm 1 mps 731 mmHg 81%
    06:00 +7°C° 0 mm 2 mps 731 mmHg 81%
    07:00 +8°C° 0 mm 2 mps 732 mmHg 78%
    08:00 +10°C° 0 mm 1 mps 733 mmHg 74%
    09:00 +11°C° 0 mm 1 mps 733 mmHg 71%
    10:00 +12°C° 0 mm 1 mps 733 mmHg 65%
    11:00 +13°C° 0 mm 1 mps 733 mmHg 60%
    12:00 +13°C° 0 mm 0 mps 734 mmHg 55%
    13:00 +14°C° 0 mm 1 mps 733 mmHg 53%
    14:00 +15°C° 0 mm 1 mps 733 mmHg 50%
    15:00 +15°C° 0 mm 1 mps 733 mmHg 48%
    16:00 +15°C° 0 mm 1 mps 733 mmHg 51%
    17:00 +15°C° 0 mm 1 mps 734 mmHg 54%
    18:00 +14°C° 0 mm 1 mps 734 mmHg 57%
    19:00 +14°C° 0 mm 1 mps 734 mmHg 60%
    20:00 +13°C° 0 mm 1 mps 734 mmHg 63%
    21:00 +12°C° 0 mm 1 mps 735 mmHg 65%
    22:00 +12°C° 0 mm 1 mps 735 mmHg 67%
    23:00 +12°C° 0 mm 1 mps 735 mmHg 68%

    3 March, Tuesday

    Time Temperature Precipitation Wind Pressure Humidity
    00:00 +11°C° 0 mm 1 mps 735 mmHg 69%
    01:00 +11°C° 0 mm 1 mps 735 mmHg 70%
    02:00 +11°C° 0 mm 1 mps 735 mmHg 71%
    03:00 +10°C° 0 mm 1 mps 735 mmHg 72%
    04:00 +10°C° 0 mm 1 mps 735 mmHg 73%
    05:00 +10°C° 0 mm 1 mps 735 mmHg 75%
    06:00 +8°C° 0 mm 2 mps 736 mmHg 76%
    07:00 +10°C° 0 mm 2 mps 736 mmHg 72%
    08:00 +12°C° 0 mm 2 mps 736 mmHg 68%
    09:00 +13°C° 0 mm 2 mps 737 mmHg 64%
    10:00 +14°C° 0 mm 1 mps 737 mmHg 59%
    11:00 +15°C° 0 mm 1 mps 736 mmHg 55%
    12:00 +16°C° 0 mm 1 mps 736 mmHg 50%
    13:00 +17°C° 0 mm 2 mps 736 mmHg 47%
    14:00 +17°C° 0 mm 2 mps 736 mmHg 44%
    15:00 +18°C° 0 mm 3 mps 735 mmHg 41%
    16:00 +17°C° 0 mm 3 mps 735 mmHg 44%
    17:00 +16°C° 0 mm 3 mps 735 mmHg 48%
    18:00 +14°C° 0 mm 3 mps 735 mmHg 51%
    19:00 +14°C° 0 mm 3 mps 735 mmHg 53%
    20:00 +13°C° 0 mm 3 mps 736 mmHg 55%
    21:00 +13°C° 0 mm 3 mps 736 mmHg 58%
    22:00 +12°C° 0 mm 3 mps 736 mmHg 59%
    23:00 +12°C° 0 mm 3 mps 736 mmHg 61%
    Show more